EW8735 Weather Reports


time (UTC)temp
C
wind
direction
speed
KPH
gust
KPH
rain 1hr
cm
rain 24hr
cm
rain mn
cm
humidity
%
barometer
mb
20260508094548 7 222 0.0 0.0 0.00 0.00 0.00 51 1011.8
20260508093050 9 222 0.0 0.0 0.00 0.00 0.00 44 1011.8
20260508091547 11 222 0.0 0.0 0.00 0.00 0.00 37 1011.5
20260508090051 11 223 0.0 0.0 0.00 0.00 0.00 33 1011.5
20260508084534 11 222 0.0 0.0 0.00 0.00 0.00 32 1011.5
20260508083033 10 222 0.0 0.0 0.00 0.00 0.00 33 1011.7
20260508081538 11 222 0.0 0.0 0.00 0.00 0.00 33 1011.7
20260508080032 12 222 0.0 0.0 0.00 0.00 0.00 28 1011.8
20260508074526 11 222 0.0 0.0 0.00 0.00 0.00 31 1011.8
20260508073023 11 222 0.0 0.0 0.00 0.00 0.00 37 1011.8
20260508071524 11 222 0.0 0.0 0.00 0.00 0.00 38 1011.8
20260508070018 12 222 0.0 0.0 0.00 0.00 0.00 38 1011.6
20260508064528 12 222 0.0 0.0 0.00 0.00 0.00 38 1011.4
20260508063016 11 222 0.0 0.0 0.00 0.00 0.00 44 1011.5
20260508061520 11 222 0.0 0.0 0.00 0.00 0.00 47 1011.4
20260508060022 11 222 0.0 0.0 0.00 0.00 0.00 49 1011.3
20260508054522 11 221 0.0 0.0 0.00 0.00 0.00 48 1011.2
20260508053015 11 222 0.0 0.0 0.00 0.00 0.00 48 1011.1
20260508051514 12 222 0.0 0.0 0.00 0.00 0.00 47 1010.9
20260508050017 12 222 0.0 0.0 0.00 0.00 0.00 44 1010.8
20260508044513 12 222 0.0 0.0 0.00 0.00 0.00 46 1010.6
20260508043016 12 222 0.0 0.0 0.00 0.00 0.00 46 1010.5
20260508041512 12 222 0.0 0.0 0.00 0.00 0.00 48 1010.5
20260508040023 12 222 0.0 0.0 0.00 0.00 0.00 49 1010.4
20260508034515 12 222 0.0 0.0 0.00 0.00 0.00 51 1010.3
20260508033011 13 222 0.0 0.0 0.00 0.00 0.00 49 1010.1
20260508031511 14 222 0.0 0.0 0.00 0.00 0.00 49 1010.1
20260508030013 16 222 0.0 0.0 0.00 0.00 0.00 47 1009.9
20260508024517 17 222 0.0 0.0 0.00 0.00 0.00 43 1009.8
20260508023010 18 222 0.0 0.0 0.00 0.00 0.00 40 1009.7
20260508021513 20 224 0.0 0.0 0.00 0.00 0.00 39 1009.6
20260508020010 22 241 0.0 0.0 0.00 0.00 0.00 24 1009.7
20260508014508 22 241 0.0 0.0 0.00 0.00 0.00 23 1009.7
20260508013008 23 276 0.0 0.0 0.00 0.00 0.00 19 1009.7
20260508011512 23 276 0.0 0.0 0.00 0.00 0.00 15 1009.7
20260508010006 23 287 0.0 0.0 0.00 0.00 0.00 15 1009.8
20260508004504 23 289 0.0 0.0 0.00 0.00 0.00 19 1009.9
20260508003005 23 286 0.0 0.0 0.00 0.00 0.00 23 1009.9
20260508001508 23 321 0.0 0.0 0.00 0.00 0.00 22 1010.0
20260508000002 24 321 0.0 0.0 0.00 0.00 0.00 25 1010.0
20260507234500 25 359 0.0 0.0 0.00 0.00 0.00 20 1010.1
20260507233100 25 325 0.0 0.0 0.00 0.00 0.00 22 1010.1
20260507231558 25 25 0.0 0.0 0.00 0.00 0.00 23 1010.2
20260507230056 23 18 0.0 0.0 0.00 0.00 0.00 24 1010.4
20260507224553 23 341 0.0 0.0 0.00 0.00 0.00 21 1010.6
20260507223053 23 22 0.0 0.0 0.00 0.00 0.00 21 1010.7
20260507221550 24 37 0.0 0.0 0.00 0.00 0.00 25 1010.9
20260507220047 23 37 0.0 0.0 0.00 0.00 0.00 23 1011.2
20260507214548 23 58 0.0 0.0 0.00 0.00 0.00 26 1011.3
20260507213050 23 57 0.0 0.0 0.00 0.00 0.00 24 1011.5
20260507211549 23 343 0.0 0.0 0.00 0.00 0.00 31 1011.7
20260507210042 22 252 0.0 0.0 0.00 0.00 0.00 27 1011.8
20260507204536 22 244 0.0 0.0 0.00 0.00 0.00 29 1012.0
20260507203032 21 244 0.0 0.0 0.00 0.00 0.00 30 1012.1
20260507201539 21 244 0.0 0.0 0.00 0.00 0.00 29 1012.2
20260507200035 21 242 0.0 0.0 0.00 0.00 0.00 29 1012.4
20260507194528 21 243 0.0 0.0 0.00 0.00 0.00 35 1012.5
20260507193025 20 243 0.0 0.0 0.00 0.00 0.00 35 1012.5
20260507191526 20 243 0.0 0.0 0.00 0.00 0.00 36 1012.6
20260507190022 20 243 0.0 0.0 0.00 0.00 0.00 42 1012.7
20260507184520 20 243 0.0 0.0 0.00 0.00 0.00 38 1012.8
20260507183018 19 243 0.0 0.0 0.00 0.00 0.00 39 1013.0
20260507181517 18 242 0.0 0.0 0.00 0.00 0.00 38 1013.0
20260507180034 19 242 0.0 0.0 0.00 0.00 0.00 40 1013.0
20260507174519 19 243 0.0 0.0 0.00 0.00 0.00 43 1013.0
20260507173018 18 243 0.0 0.0 0.00 0.00 0.00 46 1013.1
20260507171508 17 216 0.0 0.0 0.00 0.00 0.00 50 1013.1
20260507170021 17 217 0.0 0.0 0.00 0.00 0.00 50 1013.2
20260507164504 17 216 0.0 0.0 0.00 0.00 0.00 53 1013.2
20260507163004 17 218 0.0 0.0 0.00 0.00 0.00 54 1013.3
20260507161505 17 218 0.0 0.0 0.00 0.00 0.00 51 1013.4
20260507160059 16 217 0.0 0.0 0.00 0.00 0.00 55 1013.3
20260507154557 15 218 0.0 0.0 0.00 0.00 0.00 56 1013.2
20260507153103 15 218 0.0 0.0 0.00 0.00 0.00 58 1013.3
20260507151549 13 218 0.0 0.0 0.00 0.00 0.00 62 1013.3
20260507150050 12 217 0.0 0.0 0.00 0.00 0.00 69 1013.5
20260507144546 10 217 0.0 0.0 0.00 0.00 0.00 74 1013.5
20260507143057 10 218 0.0 0.0 0.00 0.00 0.00 76 1013.4
20260507141547 8 218 0.0 0.0 0.00 0.00 0.00 76 1013.4
20260507140042 8 217 0.0 0.0 0.00 0.00 0.00 79 1013.2
20260507134540 8 217 0.0 0.0 0.00 0.00 0.00 79 1012.9
20260507133044 7 219 0.0 0.0 0.00 0.00 0.00 78 1012.6
20260507131545 8 219 0.0 0.0 0.00 0.00 0.00 76 1012.6
20260507130036 8 218 0.0 0.0 0.00 0.00 0.00 72 1012.6
20260507124528 11 218 0.0 0.0 0.00 0.00 0.00 66 1012.6
20260507123026 11 219 0.0 0.0 0.00 0.00 0.00 65 1012.4
20260507121527 11 218 0.0 0.0 0.00 0.00 0.00 65 1012.5
20260507120027 11 218 0.0 0.0 0.00 0.00 0.00 64 1012.4
20260507114524 11 218 0.0 0.0 0.00 0.00 0.00 62 1012.5
20260507113026 11 219 0.0 0.0 0.00 0.00 0.00 60 1012.5
20260507111523 11 219 0.0 0.0 0.00 0.00 0.00 61 1012.4
20260507110022 11 218 0.0 0.0 0.00 0.00 0.00 60 1012.4
20260507104521 11 218 0.0 0.0 0.00 0.00 0.00 60 1012.4
20260507103020 11 218 0.0 0.0 0.00 0.00 0.00 62 1012.3
20260507101519 10 219 0.0 0.0 0.00 0.00 0.00 66 1012.5
20260507100018 10 218 0.0 0.0 0.00 0.00 0.00 65 1012.3